Location: Newark
(47.5833°N, 8.1500°E)
Time: 10:48:18
(UTC+00:00)

Tiros 1 despin weight - Pass Details

Date: 27 October 2020
Orbit: 593 x 642 km, 48.2° (Epoch: 03 December)

Event Time Altitude Azimuth Distance (km) Brightness Sun altitude
Exits shadow 04:59:42 17° 278° (W) 1,544 ? -11.4°
Maximum altitude 05:03:01 59° 202° (SSW) 688 ? -10.9°
Drops below altitude 10° 05:07:21 10° 124° (ESE) 1,922 ? -10.2°
Sets 05:09:39 0° 120° (ESE) 2,824 ? -9.8°
